Cedar Rapids, IA

3:58 AM CST on December 13, 2019 (GMT -0600)
The Eastern Iowa Airport

Weather History for KCID - August, 2019

Change the Weather History Date:

Tuesday, August 6, 2019

  Actual Average Record
Temperature  
Mean Temperature 72 °F 72 °F  
Max Temperature 83 °F 82 °F 107 °F (1918)
Min Temperature 60 °F 62 °F 47 °F (1948)
Degree Days  
Heating Degree Days 0 0  
Month to date heating degree days 0 0  
Since 1 June heating degree days 11 33  
Since 1 July heating degree days 0 4  
Cooling Degree Days 7 7  
Month to date cooling degree days 45 44  
Year to date cooling degree days 547 511  
Since 1 June cooling degree days 519 462  
Growing Degree Days 21 (Base 50)    
Moisture  
Dew Point 64 °F    
Average Humidity 76    
Maximum Humidity 100    
Minimum Humidity 51    
Precipitation  
Precipitation 0.00 in 0.15 in 1.62 in (1998)
Month to date precipitation 0.89 0.85  
Year to date precipitation 23.48 21.67  
Sea Level Pressure  
Sea Level Pressure 29.86 in    
Wind  
Wind Speed 6 mph (WNW)    
Max Wind Speed 14 mph    
Max Gust Speed 21 mph    
Visibility 6 miles    
Events Fog , Rain , Thunderstorm    
T = Trace of Precipitation, MM = Missing Value Source: NWS Daily Summary

Daily Weather History Graph

Daily Weather History Graph

Search for Another Location

Airport or City:

Astronomy

Aug. 06, 2019 Rise Set
Actual Time 6:05 AM CDT 8:19 PM CDT
Civil Twilight 5:34 AM CDT 8:50 PM CDT
Nautical Twilight 4:56 AM CDT 9:28 PM CDT
Astronomical Twilight 4:14 AM CDT 10:10 PM CDT
Moon 12:36 PM CDT (8/6) 11:58 PM CDT (8/6)
Length of Visible Light 15h 15m
Length of Day
14h 13m
Waxing Crescent, 39% of the Moon is Illuminated
Aug 6
Waxing Crescent
Aug 7
First Quarter
Aug 15
Full
Aug 23
Last Quarter
Aug 30
New

Hourly Weather History & Observations

Time (CDT) Temp. Heat Index Dew Point Humidity Pressure Visibility Wind Dir Wind Speed Gust Speed Precip Events Conditions
12:26 AM 64.9 °F - 64.0 °F 97% 29.88 in 10.0 mi West 10.4 mph - 0.02 in   Mostly Cloudy
12:41 AM 64.9 °F - 64.0 °F 97% 29.87 in 10.0 mi Calm Calm - 0.03 in Rain , Thunderstorm Light Rain
12:52 AM 64.9 °F - 64.0 °F 97% 29.84 in 10.0 mi West 6.9 mph - 0.03 in Rain Light Rain
1:52 AM 63.0 °F - 63.0 °F 100% 29.84 in 10.0 mi WSW 4.6 mph - 0.00 in   Unknown
2:52 AM 62.1 °F - 62.1 °F 100% 29.84 in 9.0 mi SW 5.8 mph - N/A   Unknown
3:52 AM 62.1 °F - 62.1 °F 100% 29.85 in 10.0 mi Calm Calm - N/A   Unknown
4:22 AM 62.1 °F - 62.1 °F 100% 29.86 in 1.8 mi Calm Calm - N/A   Mist
4:37 AM 63.0 °F - 63.0 °F 100% 29.86 in 3.0 mi Calm Calm - N/A   Mist
4:52 AM 62.1 °F - 62.1 °F 100% 29.85 in 7.0 mi West 3.5 mph - N/A   Unknown
4:56 AM 60.1 °F - 60.1 °F 100% 29.86 in 5.0 mi West 4.6 mph - N/A   Mostly Cloudy
5:06 AM 62.1 °F - 62.1 °F 100% 29.86 in 5.0 mi West 4.6 mph - N/A   Mostly Cloudy
5:13 AM 62.1 °F - 62.1 °F 100% 29.86 in 6.0 mi WNW 4.6 mph - N/A   Overcast
5:40 AM 63.0 °F - 63.0 °F 100% 29.86 in 1.0 mi West 4.6 mph - N/A   Overcast
5:48 AM 62.6 °F - 62.6 °F 100% 29.86 in 0.2 mi West 4.6 mph - N/A Fog Fog
5:52 AM 63.0 °F - 63.0 °F 100% 29.85 in 0.5 mi WNW 6.9 mph - N/A Fog Fog
6:07 AM 63.0 °F - 63.0 °F 100% 29.87 in 0.2 mi West 5.8 mph - N/A Fog Fog
6:13 AM 63.0 °F - 63.0 °F 100% 29.87 in 0.5 mi West 8.1 mph - N/A Fog Fog
6:30 AM 63.0 °F - 63.0 °F 100% 29.87 in 0.5 mi WNW 6.9 mph - N/A Fog Fog
6:52 AM 63.0 °F - 63.0 °F 100% 29.86 in 0.5 mi NW 4.6 mph - N/A Fog Fog
6:59 AM 63.0 °F - 63.0 °F 100% 29.87 in 0.2 mi NW 5.8 mph - N/A Fog Fog
7:39 AM 63.0 °F - 63.0 °F 100% 29.87 in 0.2 mi Calm Calm - N/A Fog Fog
7:52 AM 64.0 °F - 64.0 °F 100% 29.86 in 0.2 mi Calm Calm - N/A Fog Fog
7:59 AM 63.0 °F - 63.0 °F 100% 29.87 in 0.5 mi Calm Calm - N/A Fog Fog
8:07 AM 64.0 °F - 64.0 °F 100% 29.87 in 1.0 mi NNW 3.5 mph - N/A   Overcast
8:35 AM 66.0 °F - 66.0 °F 100% 29.88 in 5.0 mi NNW 4.6 mph - N/A   Overcast
8:52 AM 66.0 °F - 66.0 °F 100% 29.87 in 5.0 mi NNW 4.6 mph - N/A   Overcast
8:59 AM 66.9 °F - 66.0 °F 97% 29.88 in 10.0 mi NNW 4.6 mph - N/A   Clear
9:52 AM 73.0 °F - 66.9 °F 81% 29.86 in 10.0 mi NW 6.9 mph - N/A   Clear
10:52 AM 75.9 °F - 66.9 °F 74% 29.87 in 10.0 mi NNW 8.1 mph - N/A   Clear
11:52 AM 78.1 °F - 66.0 °F 66% 29.88 in 10.0 mi North 13.8 mph - N/A   Clear
12:52 PM 81.0 °F 82.7 °F 64.9 °F 58% 29.87 in 10.0 mi North 10.4 mph - N/A   Clear
1:52 PM 81.0 °F 82.7 °F 64.9 °F 58% 29.87 in 10.0 mi NNW 8.1 mph - N/A   Partly Cloudy
2:52 PM 82.0 °F 83.4 °F 64.0 °F 54% 29.86 in 10.0 mi WNW 8.1 mph - N/A   Scattered Clouds
3:52 PM 82.9 °F 84.4 °F 64.0 °F 53% 29.86 in 10.0 mi NW 13.8 mph - N/A   Scattered Clouds
4:52 PM 81.0 °F 81.9 °F 62.1 °F 52% 29.86 in 10.0 mi NNW 10.4 mph - N/A   Scattered Clouds
5:52 PM 82.0 °F 83.0 °F 62.1 °F 51% 29.85 in 10.0 mi NW 10.4 mph 20.7 mph N/A   Scattered Clouds
6:52 PM 80.1 °F 81.5 °F 63.0 °F 56% 29.84 in 10.0 mi NNW 6.9 mph - N/A   Clear
7:52 PM 75.0 °F - 64.0 °F 69% 29.84 in 10.0 mi NW 4.6 mph - N/A   Clear
8:52 PM 73.0 °F - 64.0 °F 73% 29.83 in 10.0 mi NW 4.6 mph - N/A   Clear
9:52 PM 69.1 °F - 63.0 °F 81% 29.86 in 10.0 mi WNW 6.9 mph - N/A   Clear
10:52 PM 66.0 °F - 63.0 °F 90% 29.86 in 10.0 mi West 8.1 mph - N/A   Clear
11:52 PM 64.0 °F - 63.0 °F 96% 29.87 in 10.0 mi Calm Calm - N/A   Clear